Weather Service Report


593 
ASUS41 KALY 300310
RWRALY

NEW YORK STATE HOURLY WEATHER ROUNDUP
NATIONAL WEATHER SERVICE ALBANY NY
1100 PM EDT SAT AUG 29 2015

NOTE: "FAIR" INDICATES FEW OR NO CLOUDS BELOW 12,000 FEET WITH NO
SIGNIFICANT WEATHER AND/OR NO OBSTRUCTIONS TO VISIBILITY.

NYZ032-033-038>043-046>054-057>066-NYZ062>081-300400-
EAST

  
CITY           SKY/WX    TMP DP  RH WIND       PRES   REMARKS
ALBANY         MOCLDY    69  61  75 CALM      30.09S                  
GLENS FALLS    CLOUDY    67  62  84 CALM      30.08S                  
POUGHKEEPSIE   CLEAR     68  61  78 CALM      30.08F                  
NEWBURGH       CLEAR     70  63  78 CALM      30.11S                  
MONTGOMERY     CLEAR     65  62  90 CALM      30.10S                  
WHITE PLAINS   FAIR      69  61  75 S3        30.11F                  
ISLIP          MOCLDY    73  64  73 SW7       30.11S                  
NEW YORK CITY  PTCLDY    76  59  55 S13G20    30.10S                  
CENTRAL PARK   CLEAR     76  59  55 VRB5      30.13S                  
$$

NYZ005>009-017-018-044>046-055-056-300400-
CENTRAL

  
CITY           SKY/WX    TMP DP  RH WIND       PRES   REMARKS
FULTON         CLOUDY    63  60  90 CALM      30.10F                  
SYRACUSE       MOCLDY    64  61  90 E3        30.10F                  
ROME           MOCLDY    64  60  87 CALM      30.12S                  
ELMIRA         CLEAR     61  60  97 CALM      30.12R                  
BINGHAMTON     PTCLDY    65  58  78 E7        30.14S                  
MONTICELLO     PTCLDY    63  63 100 CALM      30.15S                  
$$

NYZ026>034-041>043-300400-
NORTH

  
CITY           SKY/WX    TMP DP  RH WIND       PRES   REMARKS
WATERTOWN      CLOUDY    64  60  87 S5        30.09F                  
FORT DRUM      NOT AVBL                                               
MASSENA        CLOUDY    64  60  87 SW6       30.08F                  
SARANAC LAKE   CLOUDY    61  55  81 SW3       30.12F                  
PLATTSBURGH    CLOUDY    70  59  68 W3        30.07S                  
$$

NYZ001>004-010>016-019>021-300400-
WEST

  
CITY           SKY/WX    TMP DP  RH WIND       PRES   REMARKS
NIAGARA FALLS  CLOUDY    69  60  73 CALM      30.08S                  
BUFFALO        CLOUDY    71  57  61 S6        30.09S                  
DUNKIRK        CLOUDY    67  61  81 E3        30.09S                  
JAMESTOWN      CLOUDY    64  59  82 S5        30.14R                  
WELLSVILLE     CLEAR     64  58  80 CALM      30.18S                  
ROCHESTER      CLOUDY    69  61  75 CALM      30.10S                  
PENN YAN       PTCLDY    60  58  92 CALM      30.12S                  
$$

             KEY
       WCI = WIND CHILL INDEX
       VSB = VISIBILITY
       HX  = HEAT INDEX
$$

Return to Home page


Western Regional Climate Center, wrcc@dri.edu